Volver al catálogo

DELTA 1 DEB

ActivoPO
NORAD 21272·DEBRIS·🇺🇸 United States

Lanzado Jun 12, 1975 desde Vandenberg Space Force Base

Loading…

Próximos Pases (próximas 24 horas)

TLE

ActualizadoSource: Space-Track

Época: Sep 14, 2026, 07:41 UTC

1 21272U 75052H   26257.32060911 -.00000309  00000-0 -80143-3 0  9990
2 21272  99.8833  27.0295 0308500  63.6189 327.3457 12.93347247601156

Sigue DELTA 1 DEB en tiempo real con AllMySat

Download on the App Store